Location: Bauerbach
(50.4985°N, 10.3912°E)
Time: 11:22:04
(UTC+00:00)

MOS 1 Rocket - Pass Details

Date: 13 January 2026
Orbit: 608 x 815 km, 97.4° (Epoch: 16 February)

Event Time Altitude Azimuth Distance (km) Brightness Sun altitude
Rises 06:33:31 0° 8° (N) 3,105 6.5 -6.5°
Reaches altitude 10° 06:35:55 10° 2° (N) 2,148 5.6 -6.2°
Maximum altitude 06:40:20 43° 292° (WNW) 934 3.6 -5.5°
Drops below altitude 10° 06:44:30 10° 221° (SW) 2,026 5.6 -4.9°
Sets 06:46:42 0° 215° (SW) 2,907 6.4 -4.6°
